{"data":{"norad_id":52352,"intl_designator":"2022-045X","name":"STARLINK-3838","alt_names":[],"object_type":"PAYLOAD","status":"ACTIVE","operator":null,"country":"US","launch_date":"2022-04-29","launch_site_code":"AFETR","launch_vehicle":null,"mission":null,"orbit_class":"UNKNOWN","rcs_meters":null,"size_class":null,"mass_kg":null,"dimensions":null,"purposes":["comms"],"wikipedia_slug":null,"has_3d_model":false,"image_url":null,"decayed_at":null,"tle_current":{"epoch":"2026-05-24T22:15:41.914080Z","epoch_age_seconds":88288,"freshness":"FRESH","line1":"1 52352U 22045X   26144.92756845 -.00000799  00000+0 -32089-4 0  9995","line2":"2 52352  53.2147 216.8770 0001209  87.3771 272.7360 15.08840799227297","mean_motion":15.08840799,"eccentricity":0.0001209,"inclination_deg":53.2147,"raan_deg":216.877,"arg_perigee_deg":87.3771,"mean_anomaly_deg":272.736,"bstar":-3.2089e-5,"rev_number":22729,"period_min":95.437504139229,"perigee_km":538.90457529807,"apogee_km":540.57731818559,"semimajor_km":6917.8779467418,"source":"CELESTRAK","updated_at":"2026-05-25T13:38:17.116862Z"}}}